Location: Hains Lake
(37.8540°N, 99.8578°W)
Time: 15:36:51
(UTC+00:00)

Vanguard 1 - Pass Details

Date: 09 December 2021
Orbit: 652 x 3830 km, 34.2° (Epoch: 22 January)

Event Time Altitude Azimuth Distance (km) Brightness Sun altitude
Rises 06:24:56 0° 254° (WSW) 6,802 14.3 -74.9°
Enters shadow 06:26:31 - 253° (WSW) 6,513 14.2 -74.9°
Exits shadow 07:07:14 25° 91° (E) 5,384 13.7 -73.2°
Drops below altitude 10° 07:12:35 10° 90° (E) 6,251 14.2 -72.6°
Sets 07:16:43 0° 89° (E) 6,978 14.6 -72.2°
